This is the latest recevied weather packets stored in our database for station/object EFTP. If no packets are shown the sender has not sent any weather packets the latest 10 day(s).
| Time | Temp. | Humidity | Pressure | Rain* | Wind** | Luminosity | Snow |
|---|---|---|---|---|---|---|---|
| 1777970838 | 5.56° C | 70% | 1002.2 hPa | - | - | - | - |
| 1777969638 | 5° C | 76% | 1002.2 hPa | - | - | - | - |
| 1777968437 | 4.44° C | 79% | 1002 hPa | - | - | - | - |
| 1777967237 | 4.44° C | 88% | 1001.9 hPa | - | - | - | - |
| 1777966037 | 3.33° C | 84% | 1001.7 hPa | - | - | - | - |
| 1777964837 | 3.89° C | 87% | 1001.3 hPa | - | - | - | - |
| 1777962437 | 3.33° C | 90% | 1000.7 hPa | - | - | - | - |
| 1777961237 | 3.33° C | 93% | 1000.6 hPa | - | - | - | - |
| 1777960037 | 3.33° C | 88% | 1000.4 hPa | - | - | - | - |
| 1777958837 | 3.33° C | 91% | 1000.2 hPa | - | - | - | - |
| 1777957636 | 3.33° C | 94% | 999.9 hPa | - | - | - | - |
| 1777956437 | 3.89° C | 92% | 999.6 hPa | - | - | - | - |
| 1777955236 | 3.89° C | 88% | 999.6 hPa | - | - | - | - |
| 1777954037 | 4.44° C | 93% | 999.2 hPa | - | - | - | - |
| 1777940836 | 5.56° C | 93% | 1000.4 hPa | - | - | - | - |
| 1777934836 | 5.56° C | 94% | 1000.7 hPa | - | - | - | - |
| 1777932436 | 7.22° C | 90% | 1000.6 hPa | - | - | - | - |
| 1777931236 | 7.78° C | 91% | 1000.5 hPa | - | - | - | - |
| 1777930036 | 7.78° C | 91% | 1000.5 hPa | - | - | - | - |
| 1777928837 | 7.78° C | 90% | 1000.5 hPa | - | - | - | - |
| 1777924035 | 8.33° C | 79% | 1000.3 hPa | - | - | - | - |
| 1777922835 | 8.33° C | 78% | 1000.3 hPa | - | - | - | - |
| 1777920435 | 8.33° C | 77% | 1000.3 hPa | - | - | - | - |
| 1777919235 | 8.89° C | 74% | 1000.4 hPa | - | - | - | - |
| 1777918035 | 9.44° C | 71% | 1000.2 hPa | - | - | - | - |
* Rain since midnight (hover to see other rain measurements)
** Current wind speed in m/s (hover to see current wind gust speed)